Location: Unspecified
(49.8851°N, 0.0000°E)
Time: 04:46:22
(UTC+00:00)

CZ-6A DEB - Visible Passes

Search period start: 04 April 2026 00:00
Search period end: 14 April 2026 00:00
Orbit: 783 x 960 km, 89.0° (Epoch: 28 March)

Date Brightness Start Highest point End Pass type
(mag) Time Alt. Az. Time Alt. Az. Time Alt. Az.
4 Apr ? 04:39:50 10° ESE 04:43:58 21° ENE 04:48:01 10° NNE visible
5 Apr ? 04:34:13 10° ESE 04:38:17 21° ENE 04:42:14 10° NNE visible
6 Apr ? 04:28:36 10° ESE 04:32:34 20° ENE 04:36:26 10° NNE visible
7 Apr ? 04:22:59 10° ESE 04:26:52 19° ENE 04:30:39 10° NNE visible
8 Apr ? 04:17:22 10° ESE 04:21:09 19° ENE 04:24:51 10° NNE visible
9 Apr ? 04:11:46 10° ESE 04:15:26 18° ENE 04:19:02 10° NNE visible
10 Apr ? 04:06:09 10° ESE 04:09:44 18° ENE 04:13:13 10° NNE visible
11 Apr ? 04:00:32 10° ESE 04:04:00 17° ENE 04:07:24 10° NNE visible
12 Apr ? 03:54:54 10° ESE 03:58:16 17° ENE 04:01:35 10° NNE visible
13 Apr ? 03:49:17 10° ESE 03:52:32 16° ENE 03:55:44 10° NNE visible
